Location: Newark
(51.2625°N, 13.3939°E)
Time: 07:23:53
(UTC+00:00)

deb Explorer IX - Pass Details

Date: 20 November 2019
Orbit: 546 x 1104 km, 38.8° (Epoch: 14 December)

Event Time Altitude Azimuth Distance (km) Brightness Sun altitude
Rises 00:05:09 0° 222° (SW) 3,725 - -55.2°
Reaches altitude 10° 00:08:45 10° 206° (SSW) 2,681 - -54.9°
Maximum altitude 00:12:59 19° 164° (SSE) 2,007 - -54.5°
Drops below altitude 10° 00:16:52 10° 122° (ESE) 2,421 - -54.2°
Sets 00:19:54 0° 104° (ESE) 3,241 - -53.9°
